DELTA 1 DEB, 7035

Orbit data source: Space-Track

DELTA 1 DEB, 7035 is space debris in LEO originally from a launch on Tue, 06 Nov 1973 UTC launched from the Air Force Western Test Range (AFWTR). Debris objects in space refer to the collection of defunct objects orbiting the Earth. Examples of debris include non-operational satellites, rocket bodies, and fragments generated from explosions, collisions, or faulty payload assembly.

Loading next visibility...
Identifier
7035, 1973-086AB
Orbit
LEO
Last TLE update
5 hours ago
Origin
Manufacturer
Unknown
Mission
Spacecraft
Bus & Motor
Unknown
Mass
Unknown
Launch date (UTC)
1973-11-06 (52 years ago)
Launch vehicle
Unknown
Launch site
Air Force Western Test Range (AFWTR)
Object type
Payload
Rocket body
Debris
Shape & HBR
Unknown
Radar Cross Section
Medium (>0.1 m² and <1 m²)

Expand to show TLE details & history

TLE from 5 hours ago
0 DELTA 1 DEB
1  7035U 73086AB  25189.11987269  .00000060  00000-0  12850-2 0  9991
2  7035 101.7670 144.2876 0318075 326.1067  42.3228 11.83485522229889
Epoch: 2025-07-08T02:52Z
TLE epoch observation values (Epoch: 2025-07-08T02:52:37Z)
Latitude
10.68076°
Longitude
172.57337°
Altitude
1,569.953 km
Speed
7.165 km/s
True Right ascension
09h 28m 11s
True Declination
10° 37' 29"
Sunlit
Object was in daylight at epoch
Visualization orbit readout
Latitude
-12.27028°
Longitude
-7.58579°
Altitude
1,933.812 km
Speed
6.852 km/s
Apparent Right ascension
23h 11m 44s
Apparent Declination
-55° 56' 21"
Sunlit
Object is in full shadow
Visualization observer readout
Local Sidereal Time
20:04:48
Azimuth
155.178° SSE
Elevation
-13.719°
Doppler factor
1
Orbital elements
Apogee altitude
2,011.93 km
Perigee altitude
1,494.65 km
Semi-major axis
8,131.427 km
Eccentricity
0.03181
Inclination
101.767°
RAAN
144.2876°
Arg. of periapsis
326.1067°
True anomaly
Unknown
Mean anomaly
42.3228°
Eccentric anomaly
Unknown
Mean motion
2.96001 °/min
Orbital period
121.62 mins
BSTAR
0.001285
Loading maneuver chart data...
Loading SW <> Apogee altitude chart data...
Loading historical data...
Loading historical data...
Loading historical data...
Loading historical data...
Loading historical data...
Loading historical data...
Loading historical data...

DELTA 1 DEB Visibility forecast

Observer location: undefined°, undefined°

Span
Click to sort rows by Start time (UTC) header in descending order
Start Az.
Max El. time (UTC)
Max El. Az.
Max El.
End time (UTC)
End Az.
21 mins2025-07-08 09:32:10.076Z22.601° NE2025-07-08 09:42:10.076Z97.646° ESE42.702°2025-07-08 09:53:10.076Z186.422° SSW
17 mins2025-07-08 11:33:10.076Z358.963° N2025-07-08 11:41:10.076Z300.205° NW30.937°2025-07-08 11:50:10.076Z243.465° WSW
14 mins2025-07-08 19:13:10.076Z103.104° ESE2025-07-08 19:19:10.076Z52.294° ENE27.507°2025-07-08 19:27:10.076Z357.891° N
17 mins2025-07-08 21:10:10.076Z175.511° S2025-07-08 21:17:10.076Z244.675° WSW42.743°2025-07-08 21:27:10.076Z338.399° N
|